Weather History for Monett, MO

Change the Weather History Date:

Wednesday, November 7, 2012

  Actual Average (KJLN) Record (KJLN)
Temperature  
Mean Temperature 43 °F 52 °F  
Max Temperature 53 °F 63 °F 83 °F (2005)
Min Temperature 33 °F 42 °F 14 °F (1991)
Degree Days  
Heating Degree Days 22 13  
Month to date heating degree days 84  
Since 1 July heating degree days 336  
Cooling Degree Days 0 0  
Month to date cooling degree days 5  
Year to date cooling degree days 1696  
Moisture  
Dew Point 31 °F    
Average Humidity 64    
Maximum Humidity 81    
Minimum Humidity 44    
Precipitation  
Precipitation 0.00 in 0.13 in 0.85 in (2011)
Month to date precipitation 0.92  
Year to date precipitation 40.87  
Sea Level Pressure  
Sea Level Pressure 30.11 in    
Wind  
Wind Speed 6 mph (NW)    
Max Wind Speed 18 mph    
Max Gust Speed 22 mph    
Visibility 10 miles    
Events      
T = Trace of Precipitation, MM = Missing Value Source: NWS Daily Summary

Daily Weather History Graph

Daily Weather History Graph

Search for Another Location

Airport:

Trip Planner

Search our weather history database for the weather conditions in past years. The results will help you decide how hot, cold, wet, or windy it might be!

Date:

Astronomy

Nov. 07, 2012 Rise Set
Actual Time 6:46 AM CST 5:12 PM CST
Civil Twilight 6:19 AM CST 5:39 PM CST
Nautical Twilight 5:48 AM CST 6:10 PM CST
Astronomical Twilight 5:18 AM CST 6:41 PM CST
Moon No Moon Rise 1:12 PM CST (11/7)
Length of Visible Light 11h 20m
Length of Day
10h 25m
Last Quarter, 43% of the Moon is Illuminated
Nov 7
Last Quarter
Nov 13
New
Nov 20
First Quarter
Nov 28
Full
Dec 6
Last Quarter

Hourly Weather History & Observations

Time (CST) Temp. Windchill Dew Point Humidity Pressure Visibility Wind Dir Wind Speed Gust Speed Precip Events Conditions
12:15 AM 41.0 °F 39.0 °F 28.4 °F 61% 30.06 in 10.0 mi West 3.5 mph - N/A   Clear
12:35 AM 37.4 °F 33.8 °F 30.2 °F 75% 30.06 in 10.0 mi West 4.6 mph - N/A   Clear
12:55 AM 37.4 °F 33.8 °F 30.2 °F 75% 30.05 in 10.0 mi West 4.6 mph - N/A   Clear
1:15 AM 37.4 °F 32.8 °F 28.4 °F 70% 30.06 in 10.0 mi West 5.8 mph - N/A   Clear
1:35 AM 37.4 °F 33.8 °F 28.4 °F 70% 30.06 in 10.0 mi WSW 4.6 mph - N/A   Clear
1:55 AM 35.6 °F 32.8 °F 30.2 °F 81% 30.06 in 10.0 mi WSW 3.5 mph - N/A   Clear
2:15 AM 35.6 °F 32.8 °F 30.2 °F 81% 30.07 in 10.0 mi WSW 3.5 mph - N/A   Clear
2:35 AM 35.6 °F 30.7 °F 30.2 °F 81% 30.07 in 10.0 mi West 5.8 mph - N/A   Clear
2:55 AM 35.6 °F 31.7 °F 28.4 °F 75% 30.06 in 10.0 mi West 4.6 mph - N/A   Clear
3:15 AM 35.6 °F 29.9 °F 30.2 °F 81% 30.07 in 10.0 mi WSW 6.9 mph - N/A   Clear
3:35 AM 35.6 °F 30.7 °F 28.4 °F 75% 30.07 in 10.0 mi WSW 5.8 mph - N/A   Clear
3:55 AM 35.6 °F 31.7 °F 28.4 °F 75% 30.07 in 10.0 mi WNW 4.6 mph - N/A   Clear
4:15 AM 35.6 °F 31.7 °F 28.4 °F 75% 30.08 in 10.0 mi West 4.6 mph - N/A   Clear
4:35 AM 35.6 °F 31.7 °F 28.4 °F 75% 30.08 in 10.0 mi WNW 4.6 mph - N/A   Clear
4:55 AM 37.4 °F 33.8 °F 28.4 °F 70% 30.09 in 10.0 mi NW 4.6 mph - N/A   Clear
5:15 AM 35.6 °F 30.7 °F 28.4 °F 75% 30.09 in 10.0 mi WNW 5.8 mph - N/A   Clear
5:35 AM 37.4 °F 33.8 °F 28.4 °F 70% 30.09 in 10.0 mi NW 4.6 mph - N/A   Clear
5:55 AM 35.6 °F 31.7 °F 28.4 °F 75% 30.10 in 10.0 mi WNW 4.6 mph - N/A   Clear
6:15 AM 35.6 °F 30.7 °F 28.4 °F 75% 30.11 in 10.0 mi West 5.8 mph - N/A   Clear
6:35 AM 33.8 °F 28.6 °F 28.4 °F 81% 30.11 in 10.0 mi West 5.8 mph - N/A   Clear
6:55 AM 33.8 °F 29.6 °F 28.4 °F 81% 30.12 in 10.0 mi West 4.6 mph - N/A   Clear
7:15 AM 35.6 °F 30.7 °F 28.4 °F 75% 30.12 in 10.0 mi West 5.8 mph - N/A   Clear
7:35 AM 35.6 °F 30.7 °F 30.2 °F 81% 30.13 in 10.0 mi WNW 5.8 mph - N/A   Clear
7:55 AM 37.4 °F 34.9 °F 30.2 °F 75% 30.14 in 10.0 mi WNW 3.5 mph - N/A   Clear
8:15 AM 39.2 °F 35.0 °F 30.2 °F 70% 30.14 in 10.0 mi WNW 5.8 mph - N/A   Clear
8:35 AM 41.0 °F 37.1 °F 32.0 °F 70% 30.14 in 10.0 mi NW 5.8 mph - N/A   Clear
8:55 AM 42.8 °F 39.3 °F 32.0 °F 66% 30.15 in 10.0 mi WNW 5.8 mph - N/A   Clear
9:15 AM 44.6 °F 39.7 °F 32.0 °F 61% 30.15 in 10.0 mi NW 9.2 mph - N/A   Clear
9:35 AM 46.4 °F 41.1 °F 32.0 °F 57% 30.15 in 10.0 mi NNW 11.5 mph 18.4 mph N/A   Clear
9:55 AM 48.2 °F - 33.8 °F 58% 30.15 in 10.0 mi NW 11.5 mph 17.3 mph N/A   Clear
10:15 AM 50.0 °F - 32.0 °F 50% 30.15 in 10.0 mi NW 15.0 mph 20.7 mph N/A   Clear
10:35 AM 50.0 °F - 32.0 °F 50% 30.15 in 10.0 mi NW 13.8 mph 19.6 mph N/A   Clear
10:55 AM 50.0 °F - 32.0 °F 50% 30.15 in 10.0 mi NNW 18.4 mph 21.9 mph N/A   Clear
11:15 AM 51.8 °F - 32.0 °F 47% 30.15 in 10.0 mi NNW 11.5 mph 19.6 mph N/A   Clear
11:35 AM 51.8 °F - 32.0 °F 47% 30.14 in 10.0 mi NNW 9.2 mph 18.4 mph N/A   Clear
11:55 AM 51.8 °F - 32.0 °F 47% 30.14 in 10.0 mi NNW 13.8 mph - N/A   Clear
12:15 PM 51.8 °F - 32.0 °F 47% 30.13 in 10.0 mi NW 17.3 mph - N/A   Clear
12:35 PM 51.8 °F - 32.0 °F 47% 30.13 in 10.0 mi NNW 11.5 mph - N/A   Clear
12:55 PM 51.8 °F - 33.8 °F 50% 30.12 in 10.0 mi North 9.2 mph - N/A   Clear
1:15 PM 51.8 °F - 32.0 °F 47% 30.11 in 10.0 mi NNW 12.7 mph - N/A   Clear
1:35 PM 51.8 °F - 32.0 °F 47% 30.11 in 10.0 mi NNW 9.2 mph - N/A   Clear
1:55 PM 53.6 °F - 32.0 °F 44% 30.10 in 10.0 mi North 8.1 mph - N/A   Clear
2:15 PM 53.6 °F - 32.0 °F 44% 30.10 in 10.0 mi WNW 9.2 mph - N/A   Clear
2:35 PM 53.6 °F - 32.0 °F 44% 30.10 in 10.0 mi North 9.2 mph - N/A   Clear
2:55 PM 53.6 °F - 32.0 °F 44% 30.10 in 10.0 mi WNW 3.5 mph - N/A   Clear
3:15 PM 53.6 °F - 32.0 °F 44% 30.11 in 10.0 mi NNW 4.6 mph - N/A   Clear
3:35 PM 53.6 °F - 32.0 °F 44% 30.10 in 10.0 mi NNW 4.6 mph - N/A   Clear
3:55 PM 51.8 °F - 32.0 °F 47% 30.10 in 10.0 mi North 5.8 mph - N/A   Clear
4:15 PM 51.8 °F - 32.0 °F 47% 30.10 in 10.0 mi NNW 3.5 mph - N/A   Clear
4:35 PM 51.8 °F - 32.0 °F 47% 30.10 in 10.0 mi Calm Calm - N/A   Clear
4:55 PM 50.0 °F - 32.0 °F 50% 30.09 in 10.0 mi NNE 3.5 mph - N/A   Clear
5:15 PM 50.0 °F - 32.0 °F 50% 30.10 in 10.0 mi Calm Calm - N/A   Clear
5:35 PM 48.2 °F - 32.0 °F 54% 30.10 in 10.0 mi Calm Calm - N/A   Clear
5:55 PM 46.4 °F - 32.0 °F 57% 30.11 in 10.0 mi Calm Calm - N/A   Clear
6:15 PM 46.4 °F 45.2 °F 32.0 °F 57% 30.11 in 10.0 mi ENE 3.5 mph - N/A   Clear
6:35 PM 46.4 °F 45.2 °F 32.0 °F 57% 30.11 in 10.0 mi ENE 3.5 mph - N/A   Clear
6:55 PM 44.6 °F 43.1 °F 32.0 °F 61% 30.11 in 10.0 mi East 3.5 mph - N/A   Clear
7:15 PM 44.6 °F 42.2 °F 32.0 °F 61% 30.12 in 10.0 mi East 4.6 mph - N/A   Clear
7:35 PM 44.6 °F 41.4 °F 32.0 °F 61% 30.11 in 10.0 mi East 5.8 mph - N/A   Clear
7:55 PM 44.6 °F 41.4 °F 32.0 °F 61% 30.12 in 10.0 mi East 5.8 mph - N/A   Clear
8:15 PM 42.8 °F 38.6 °F 32.0 °F 66% 30.12 in 10.0 mi East 6.9 mph - N/A   Clear
8:35 PM 41.0 °F 35.2 °F 32.0 °F 70% 30.12 in 10.0 mi East 9.2 mph - N/A   Clear
8:55 PM 41.0 °F 37.1 °F 32.0 °F 70% 30.12 in 10.0 mi ESE 5.8 mph - N/A   Clear
9:15 PM 41.0 °F 36.4 °F 32.0 °F 70% 30.12 in 10.0 mi ESE 6.9 mph - N/A   Clear
9:35 PM 41.0 °F 36.4 °F 32.0 °F 70% 30.12 in 10.0 mi ESE 6.9 mph - N/A   Clear
9:55 PM 41.0 °F 35.8 °F 32.0 °F 70% 30.12 in 10.0 mi ESE 8.1 mph - N/A   Clear
10:15 PM 39.2 °F 33.6 °F 32.0 °F 75% 30.12 in 10.0 mi ESE 8.1 mph - N/A   Clear
10:35 PM 39.2 °F 33.6 °F 32.0 °F 75% 30.12 in 10.0 mi ESE 8.1 mph - N/A   Clear
10:55 PM 37.4 °F 32.1 °F 32.0 °F 81% 30.12 in 10.0 mi ESE 6.9 mph - N/A   Clear
11:15 PM 37.4 °F 31.4 °F 32.0 °F 81% 30.12 in 10.0 mi ESE 8.1 mph - N/A   Clear
11:35 PM 37.4 °F 32.1 °F 32.0 °F 81% 30.12 in 10.0 mi ESE 6.9 mph - N/A   Clear
11:55 PM 37.4 °F 32.1 °F 32.0 °F 81% 30.12 in 10.0 mi ESE 6.9 mph - N/A   Clear